This is the latest recevied weather packets stored in our database for station/object DB0RV-13. If no packets are shown the sender has not sent any weather packets the latest 10 day(s).
| Time | Temp. | Humidity | Pressure | Rain* | Wind** | Luminosity | Snow |
|---|---|---|---|---|---|---|---|
| 1777823401 | 22.22° C | 34% | 1011.9 hPa | - | - | - | - |
| 1777823102 | 22.22° C | 33% | 1011.9 hPa | - | - | - | - |
| 1777822802 | 22.22° C | 35% | 1011.8 hPa | - | - | - | - |
| 1777822501 | 22.22° C | 34% | 1011.9 hPa | - | - | - | - |
| 1777822204 | 22.22° C | 33% | 1012 hPa | - | - | - | - |
| 1777821901 | 22.22° C | 31% | 1011.9 hPa | - | - | - | - |
| 1777821602 | 22.22° C | 35% | 1012 hPa | - | - | - | - |
| 1777821301 | 22.78° C | 32% | 1012 hPa | - | - | - | - |
| 1777821002 | 22.22° C | 34% | 1012.1 hPa | - | - | - | - |
| 1777820701 | 22.78° C | 34% | 1012 hPa | - | - | - | - |
| 1777820402 | 22.78° C | 33% | 1012.1 hPa | - | - | - | - |
| 1777820118 | 23.33° C | 29% | 1012.1 hPa | - | - | - | - |
| 1777819805 | 23.33° C | 28% | 1012.1 hPa | - | - | - | - |
| 1777819502 | 22.78° C | 29% | 1012.1 hPa | - | - | - | - |
| 1777819202 | 23.33° C | 28% | 1012.2 hPa | - | - | - | - |
| 1777818902 | 23.33° C | 26% | 1012.2 hPa | - | - | - | - |
| 1777818603 | 23.33° C | 26% | 1012.2 hPa | - | - | - | - |
| 1777818303 | 23.33° C | 27% | 1012.3 hPa | - | - | - | - |
| 1777818001 | 23.89° C | 28% | 1012.3 hPa | - | - | - | - |
| 1777817702 | 23.89° C | 29% | 1012.2 hPa | - | - | - | - |
| 1777817402 | 22.78° C | 28% | 1012.4 hPa | - | - | - | - |
| 1777817102 | 23.33° C | 30% | 1012.3 hPa | - | - | - | - |
| 1777816801 | 23.33° C | 30% | 1012.3 hPa | - | - | - | - |
| 1777816502 | 23.33° C | 28% | 1012.3 hPa | - | - | - | - |
| 1777816202 | 22.78° C | 29% | 1012.3 hPa | - | - | - | - |
* Rain since midnight (hover to see other rain measurements)
** Current wind speed in m/s (hover to see current wind gust speed)